Time,TemperatureF,DewpointF,PressureIn,WindDirection,WindDirectionDegrees,WindSpeedMPH,WindSpeedGustMPH,Humidity,HourlyPrecipIn,Conditions,Clouds,dailyrainin,SolarRadiationWatts/m^2,SoftwareType,DateUTC
2013-06-17 00:01:00,68.4,68.0,30.00,SSE,167,0.0,0.0,97,0.02,,,0.03,0,weatherlink.com 1.10,2013-06-17 04:01:00,
2013-06-17 00:16:00,68.4,68.0,29.99,SSE,167,0.0,1.0,97,0.01,,,0.00,0,weatherlink.com 1.10,2013-06-17 04:16:00,
2013-06-17 00:31:00,68.4,68.0,29.98,SSE,167,0.0,0.0,97,0.01,,,0.00,0,weatherlink.com 1.10,2013-06-17 04:31:00,
2013-06-17 00:46:00,68.3,68.0,30.00,SSE,167,0.0,0.0,97,0.02,,,0.01,0,weatherlink.com 1.10,2013-06-17 04:46:00,
2013-06-17 01:01:00,68.2,67.0,29.99,SSE,167,0.0,0.0,97,0.01,,,0.01,0,weatherlink.com 1.10,2013-06-17 05:01:00,
2013-06-17 01:16:00,68.2,67.0,29.99,SSE,167,0.0,0.0,97,0.01,,,0.01,0,weatherlink.com 1.10,2013-06-17 05:16:00,
2013-06-17 01:31:00,68.2,68.0,29.99,SSE,167,0.0,0.0,98,0.01,,,0.01,0,weatherlink.com 1.10,2013-06-17 05:31:00,
2013-06-17 01:46:00,68.2,68.0,29.99,SSE,167,0.0,0.0,98,0.00,,,0.01,0,weatherlink.com 1.10,2013-06-17 05:46:00,
2013-06-17 02:01:00,68.1,68.0,29.99,SSE,167,0.0,0.0,98,0.01,,,0.02,0,weatherlink.com 1.10,2013-06-17 06:01:00,
2013-06-17 02:16:00,68.0,68.0,29.98,SSE,167,0.0,0.0,98,0.01,,,0.02,0,weatherlink.com 1.10,2013-06-17 06:16:00,
2013-06-17 02:31:00,67.9,67.0,29.98,SSE,167,0.0,0.0,98,0.01,,,0.02,0,weatherlink.com 1.10,2013-06-17 06:31:00,
2013-06-17 02:46:00,67.7,67.0,29.98,SSE,167,0.0,1.0,98,0.01,,,0.02,0,weatherlink.com 1.10,2013-06-17 06:46:00,
2013-06-17 03:01:00,67.7,67.0,29.98,SSE,167,0.0,0.0,98,0.00,,,0.02,0,weatherlink.com 1.10,2013-06-17 07:01:00,
2013-06-17 03:16:00,67.7,67.0,29.98,SSE,167,0.0,0.0,98,0.00,,,0.02,0,weatherlink.com 1.10,2013-06-17 07:16:00,
2013-06-17 03:31:00,67.6,67.0,29.98,SSE,167,0.0,0.0,98,0.00,,,0.02,0,weatherlink.com 1.10,2013-06-17 07:31:00,
2013-06-17 03:46:00,67.3,67.0,29.97,SSE,167,0.0,0.0,98,0.00,,,0.02,0,weatherlink.com 1.10,2013-06-17 07:46:00,
2013-06-17 04:01:00,67.1,67.0,29.97,SSE,167,0.0,0.0,98,0.00,,,0.02,0,weatherlink.com 1.10,2013-06-17 08:01:00,
2013-06-17 04:16:00,67.0,67.0,29.97,SSE,167,0.0,0.0,98,0.00,,,0.02,0,weatherlink.com 1.10,2013-06-17 08:16:00,
2013-06-17 04:31:00,66.9,66.0,29.97,SSE,167,0.0,0.0,98,0.00,,,0.02,0,weatherlink.com 1.10,2013-06-17 08:31:00,
2013-06-17 04:46:00,66.9,66.0,29.97,SSE,167,0.0,0.0,98,0.00,,,0.02,0,weatherlink.com 1.10,2013-06-17 08:46:00,
2013-06-17 05:01:00,66.9,66.0,29.97,SSE,167,0.0,0.0,98,0.00,,,0.02,0,weatherlink.com 1.10,2013-06-17 09:01:00,
2013-06-17 05:16:00,66.9,66.0,29.96,SSE,167,0.0,1.0,98,0.00,,,0.02,0,weatherlink.com 1.10,2013-06-17 09:16:00,
2013-06-17 05:31:00,66.9,66.0,29.97,SSE,167,0.0,1.0,98,0.00,,,0.02,0,weatherlink.com 1.10,2013-06-17 09:31:00,
2013-06-17 05:46:00,67.0,67.0,29.97,SSE,167,0.0,1.0,98,0.00,,,0.02,0,weatherlink.com 1.10,2013-06-17 09:46:00,
2013-06-17 06:01:00,66.9,66.0,29.96,SSE,167,0.0,1.0,98,0.00,,,0.02,0,weatherlink.com 1.10,2013-06-17 10:01:00,
2013-06-17 06:16:00,66.9,66.0,29.96,SW,221,1.0,1.0,98,0.00,,,0.02,0,weatherlink.com 1.10,2013-06-17 10:16:00,
2013-06-17 06:31:00,66.9,66.0,29.96,SW,231,0.0,2.0,98,0.00,,,0.02,0,weatherlink.com 1.10,2013-06-17 10:31:00,
2013-06-17 06:46:00,66.8,66.0,29.96,SW,231,0.0,1.0,98,0.00,,,0.02,7,weatherlink.com 1.10,2013-06-17 10:46:00,
2013-06-17 07:01:00,66.7,66.0,29.96,SW,231,0.0,1.0,98,0.00,,,0.02,21,weatherlink.com 1.10,2013-06-17 11:01:00,
2013-06-17 07:16:00,66.9,66.0,29.97,SW,231,0.0,0.0,98,0.00,,,0.02,19,weatherlink.com 1.10,2013-06-17 11:16:00,
2013-06-17 07:31:00,67.0,67.0,29.97,SW,231,0.0,0.0,98,0.00,,,0.02,25,weatherlink.com 1.10,2013-06-17 11:31:00,
2013-06-17 07:46:00,67.3,67.0,29.97,SW,231,0.0,1.0,99,0.00,,,0.02,21,weatherlink.com 1.10,2013-06-17 11:46:00,
2013-06-17 08:01:00,67.2,67.0,29.97,SW,231,0.0,1.0,98,0.00,,,0.02,26,weatherlink.com 1.10,2013-06-17 12:01:00,
2013-06-17 08:16:00,67.3,67.0,29.97,SW,231,0.0,1.0,98,0.00,,,0.02,40,weatherlink.com 1.10,2013-06-17 12:16:00,
2013-06-17 08:31:00,67.5,67.0,29.97,SW,231,0.0,1.0,98,0.00,,,0.02,42,weatherlink.com 1.10,2013-06-17 12:31:00,
2013-06-17 08:46:00,67.7,67.0,29.96,SW,231,0.0,0.0,98,0.00,,,0.02,97,weatherlink.com 1.10,2013-06-17 12:46:00,
2013-06-17 09:01:00,68.3,68.0,29.96,SW,231,0.0,2.0,97,0.00,,,0.02,123,weatherlink.com 1.10,2013-06-17 13:01:00,
2013-06-17 09:16:00,68.9,68.0,29.96,SW,231,1.0,2.0,96,0.00,,,0.02,121,weatherlink.com 1.10,2013-06-17 13:16:00,
2013-06-17 09:31:00,69.5,68.0,29.96,SW,231,2.0,3.0,95,0.00,,,0.02,125,weatherlink.com 1.10,2013-06-17 13:31:00,
2013-06-17 09:46:00,69.8,68.0,29.96,SW,231,0.0,1.0,93,0.00,,,0.02,98,weatherlink.com 1.10,2013-06-17 13:46:00,
2013-06-17 10:01:00,70.1,68.0,29.97,SW,231,0.0,0.0,93,0.00,,,0.02,54,weatherlink.com 1.10,2013-06-17 14:01:00,
2013-06-17 10:16:00,70.3,69.0,29.96,SW,231,0.0,0.0,95,0.00,,,0.02,93,weatherlink.com 1.10,2013-06-17 14:16:00,
2013-06-17 10:31:00,70.4,69.0,29.96,SW,231,0.0,0.0,94,0.00,,,0.02,107,weatherlink.com 1.10,2013-06-17 14:31:00,
2013-06-17 10:46:00,70.8,69.0,29.96,WNW,282,1.0,3.0,93,0.00,,,0.02,200,weatherlink.com 1.10,2013-06-17 14:46:00,
2013-06-17 11:02:00,71.7,69.0,29.95,WNW,282,0.0,1.0,92,0.00,,,0.02,179,weatherlink.com 1.10,2013-06-17 15:02:00,
2013-06-17 11:17:00,72.2,69.0,29.96,WNW,282,0.0,0.0,90,0.00,,,0.02,135,weatherlink.com 1.10,2013-06-17 15:17:00,
2013-06-17 11:32:00,72.5,70.0,29.96,WNW,282,0.0,0.0,91,0.00,,,0.02,221,weatherlink.com 1.10,2013-06-17 15:32:00,
2013-06-17 11:47:00,73.2,70.0,29.95,WNW,282,0.0,1.0,90,0.00,,,0.02,308,weatherlink.com 1.10,2013-06-17 15:47:00,
2013-06-17 12:02:00,73.8,70.0,29.95,WNW,282,0.0,0.0,88,0.00,,,0.02,123,weatherlink.com 1.10,2013-06-17 16:02:00,
2013-06-17 12:17:00,73.7,70.0,29.96,WNW,282,0.0,1.0,88,0.00,,,0.02,9,weatherlink.com 1.10,2013-06-17 16:17:00,
2013-06-17 12:32:00,71.0,67.0,29.99,WNW,297,1.0,6.0,88,0.04,,,0.06,12,weatherlink.com 1.10,2013-06-17 16:32:00,
2013-06-17 12:47:00,68.2,67.0,29.98,SW,231,0.0,2.0,94,0.13,,,0.15,58,weatherlink.com 1.10,2013-06-17 16:47:00,
2013-06-17 13:02:00,67.7,67.0,29.99,SW,231,0.0,1.0,96,0.22,,,0.24,93,weatherlink.com 1.10,2013-06-17 17:02:00,
2013-06-17 13:17:00,67.9,67.0,29.99,SW,231,0.0,0.0,98,0.30,,,0.32,197,weatherlink.com 1.10,2013-06-17 17:17:00,
2013-06-17 13:32:00,68.8,68.0,29.98,SW,231,0.0,1.0,98,0.32,,,0.39,248,weatherlink.com 1.10,2013-06-17 17:32:00,
2013-06-17 13:47:00,69.6,69.0,29.98,SW,231,0.0,2.0,98,0.29,,,0.44,485,weatherlink.com 1.10,2013-06-17 17:47:00,
2013-06-17 14:02:00,70.6,70.0,29.97,SW,231,1.0,2.0,98,0.25,,,0.49,172,weatherlink.com 1.10,2013-06-17 18:02:00,
2013-06-17 14:17:00,70.9,70.0,29.96,SW,231,0.0,3.0,97,0.23,,,0.55,302,weatherlink.com 1.10,2013-06-17 18:17:00,
2013-06-17 14:32:00,72.0,71.0,29.95,NW,311,0.0,4.0,97,0.21,,,0.60,392,weatherlink.com 1.10,2013-06-17 18:32:00,
2013-06-17 14:47:00,73.0,72.0,29.93,NW,311,0.0,2.0,95,0.19,,,0.64,1007,weatherlink.com 1.10,2013-06-17 18:47:00,
2013-06-17 15:02:00,73.3,71.0,29.92,NW,311,0.0,1.0,93,0.18,,,0.68,983,weatherlink.com 1.10,2013-06-17 19:02:00,
2013-06-17 15:17:00,74.0,71.0,29.91,NW,311,3.0,3.0,91,0.17,,,0.72,954,weatherlink.com 1.10,2013-06-17 19:17:00,
2013-06-17 15:32:00,75.3,71.0,29.91,NW,311,1.0,3.0,87,0.17,,,0.77,867,weatherlink.com 1.10,2013-06-17 19:32:00,
2013-06-17 15:47:00,75.7,72.0,29.90,NW,311,0.0,3.0,89,0.18,,,0.82,257,weatherlink.com 1.10,2013-06-17 19:47:00,
2013-06-17 16:02:00,76.1,71.0,29.90,WSW,246,0.0,4.0,84,0.17,,,0.85,893,weatherlink.com 1.10,2013-06-17 20:02:00,
2013-06-17 16:17:00,76.2,73.0,29.90,WSW,246,0.0,2.0,88,0.17,,,0.89,838,weatherlink.com 1.10,2013-06-17 20:17:00,
2013-06-17 16:32:00,76.0,71.0,29.89,WSW,250,0.0,3.0,84,0.16,,,0.93,278,weatherlink.com 1.10,2013-06-17 20:32:00,
2013-06-17 16:47:00,77.0,73.0,29.89,WSW,250,0.0,2.0,87,0.14,,,0.96,745,weatherlink.com 1.10,2013-06-17 20:47:00,
2013-06-17 17:02:00,77.5,73.0,29.88,WNW,294,1.0,4.0,86,0.13,,,0.99,624,weatherlink.com 1.10,2013-06-17 21:02:00,
2013-06-17 17:17:00,78.0,73.0,29.88,WNW,294,0.0,2.0,83,0.11,,,1.00,626,weatherlink.com 1.10,2013-06-17 21:17:00,
2013-06-17 17:32:00,77.9,73.0,29.89,WNW,294,0.0,1.0,84,0.07,,,1.00,555,weatherlink.com 1.10,2013-06-17 21:32:00,
2013-06-17 17:47:00,77.3,73.0,29.89,WNW,294,0.0,1.0,86,0.04,,,1.00,214,weatherlink.com 1.10,2013-06-17 21:47:00,
2013-06-17 18:02:00,77.9,73.0,29.88,WNW,294,0.0,1.0,85,0.01,,,1.00,417,weatherlink.com 1.10,2013-06-17 22:02:00,
2013-06-17 18:18:00,77.8,73.0,29.88,WNW,294,0.0,1.0,85,0.00,,,1.00,51,weatherlink.com 1.10,2013-06-17 22:18:00,
2013-06-17 18:32:00,76.2,71.0,29.87,WNW,294,2.0,3.0,85,0.00,,,1.00,11,weatherlink.com 1.10,2013-06-17 22:32:00,
2013-06-17 18:47:00,73.5,70.0,29.88,NNE,32,0.0,4.0,87,0.00,,,1.00,21,weatherlink.com 1.10,2013-06-17 22:47:00,
2013-06-17 19:02:00,70.7,68.0,29.90,ESE,121,0.0,3.0,90,0.01,,,1.01,11,weatherlink.com 1.10,2013-06-17 23:02:00,
2013-06-17 19:17:00,68.6,67.0,29.91,South,169,0.0,3.0,94,0.01,,,1.01,0,weatherlink.com 1.10,2013-06-17 23:17:00,
2013-06-17 19:32:00,67.4,66.0,29.92,SSE,167,0.0,2.0,95,0.04,,,1.04,44,weatherlink.com 1.10,2013-06-17 23:32:00,
2013-06-17 19:47:00,67.1,66.0,29.91,SSE,166,0.0,3.0,97,0.08,,,1.08,39,weatherlink.com 1.10,2013-06-17 23:47:00,
2013-06-17 20:02:00,66.9,66.0,29.91,SSE,167,0.0,2.0,97,0.10,,,1.11,28,weatherlink.com 1.10,2013-06-18 00:02:00,
2013-06-17 20:17:00,66.9,66.0,29.91,SSE,166,0.0,1.0,97,0.12,,,1.13,19,weatherlink.com 1.10,2013-06-18 00:17:00,
2013-06-17 20:32:00,66.9,66.0,29.90,SSE,167,0.0,1.0,98,0.11,,,1.16,35,weatherlink.com 1.10,2013-06-18 00:32:00,
2013-06-17 20:47:00,67.0,67.0,29.89,SSW,211,0.0,2.0,98,0.11,,,1.19,9,weatherlink.com 1.10,2013-06-18 00:47:00,
2013-06-17 21:02:00,67.0,67.0,29.89,SSW,211,0.0,1.0,98,0.10,,,1.21,0,weatherlink.com 1.10,2013-06-18 01:02:00,
2013-06-17 21:17:00,66.8,66.0,29.90,SE,140,2.0,2.0,98,0.09,,,1.23,0,weatherlink.com 1.10,2013-06-18 01:17:00,
2013-06-17 21:32:00,66.9,66.0,29.90,SW,235,0.0,2.0,98,0.09,,,1.25,0,weatherlink.com 1.10,2013-06-18 01:32:00,
2013-06-17 21:47:00,66.8,66.0,29.91,SW,235,0.0,2.0,98,0.09,,,1.28,0,weatherlink.com 1.10,2013-06-18 01:47:00,
2013-06-17 22:02:00,66.8,66.0,29.91,West,279,0.0,2.0,98,0.09,,,1.30,0,weatherlink.com 1.10,2013-06-18 02:02:00,
2013-06-17 22:17:00,66.6,66.0,29.90,South,185,2.0,3.0,98,0.10,,,1.33,0,weatherlink.com 1.10,2013-06-18 02:17:00,
2013-06-17 22:33:00,66.7,66.0,29.91,South,185,0.0,2.0,98,0.10,,,1.35,0,weatherlink.com 1.10,2013-06-18 02:33:00,
2013-06-17 22:48:00,66.6,66.0,29.90,South,185,0.0,1.0,98,0.09,,,1.37,0,weatherlink.com 1.10,2013-06-18 02:48:00,
2013-06-17 23:03:00,66.6,66.0,29.90,South,185,0.0,1.0,98,0.09,,,1.39,0,weatherlink.com 1.10,2013-06-18 03:03:00,
2013-06-17 23:18:00,66.6,66.0,29.90,South,185,0.0,0.0,98,0.09,,,1.42,0,weatherlink.com 1.10,2013-06-18 03:18:00,
2013-06-17 23:33:00,66.5,66.0,29.90,South,185,0.0,0.0,98,0.08,,,1.43,0,weatherlink.com 1.10,2013-06-18 03:33:00,
2013-06-17 23:48:00,66.5,66.0,29.90,South,185,0.0,1.0,98,0.08,,,1.45,0,weatherlink.com 1.10,2013-06-18 03:48:00,